Hourly Data Report for October 04, 2017

All times are specified in Local Standard Time (LST). Add 1 hour to adjust for Daylight Saving Time where and when it is observed.

BRIER ISLAND
NOVA SCOTIA

44°17'09.000" N
66°20'48.000" W
15.80 m
8200604
71988
WVU

Download Data

Hourly Data (October 2017)
Hourly Data Report for October 4, 2017
Temp Definition
°C
Dew Point Temp Definition
°C
Rel Hum Definition
%
Wind Dir Definition
10's deg

Wind Spd Definition
km/h
Visibility Definition
km
Stn Press Definition
kPa
Hmdx Definition


Wind Chill Definition


Weather Definition


TIME
00:00 11.5 8.6 82 20 9   102.91     LegendNANA
01:00 11.8 8.7 81 20 13   102.86     LegendNANA
02:00 11.9 9.1 83 20 13   102.81     LegendNANA
03:00 12.1 9.3 83 20 14   102.74     LegendNANA
04:00 12.3 9.8 84 20 15   102.69     LegendNANA
05:00 12.5 10.0 85 20 16   102.62     LegendNANA
06:00 12.7 10.8 88 19 14   102.56     LegendNANA
07:00 13.1 11.0 87 21 17   102.54     LegendNANA
08:00 14.2 11.5 84 22 19   102.50     LegendNANA
09:00 14.9 11.7 81 21 23   102.41     LegendNANA
10:00 15.7 11.7 77 21 23   102.39     LegendNANA
11:00 16.1 11.9 76 22 23   102.31     LegendNANA
12:00 16.7 12.1 74 22 25   102.19     LegendNANA
13:00 16.4 12.4 77 22 21   102.09     LegendNANA
14:00 16.3 12.3 77 22 21   102.03     LegendNANA
15:00 16.0 12.2 78 21 22   101.97     LegendNANA
16:00 16.4 12.3 77 20 16   101.88     LegendNANA
17:00 14.8 12.3 85 18 14   101.81     LegendNANA
18:00 13.7 12.3 91 18 13   101.74     LegendNANA
19:00 13.8 12.7 94 18 14   101.67     LegendNANA
20:00 14.1 13.2 94 19 14   101.63     LegendNANA
21:00 14.1 13.1 94 19 18   101.57     LegendNANA
22:00 14.4 13.3 93 19 19   101.46     LegendNANA
23:00 14.6 13.5 93 19 22   101.37     LegendNANA

Notes on Data Quality.

Legend

  • E = Estimated
  • M = Missing
  • NA = Not Available
  • ‡ = Partner data that is not subject to review by the National Climate Archives
Date modified: